Delaware, OH

7:44 PM EDT on April 26, 2017 (GMT -0400)
Delaware Municipal

Weather History for KDLZ - February, 2013

Change the Weather History Date:

Monday, February 4, 2013

  Actual Average Record
Temperature  
Mean Temperature 19 °F -  
Max Temperature 28 °F 34 °F 61 °F (1962)
Min Temperature 10 °F 16 °F -15 °F (1985)
Degree Days  
Heating Degree Days 46    
Moisture  
Dew Point 18 °F    
Average Humidity 87    
Maximum Humidity 93    
Minimum Humidity 64    
Precipitation  
Precipitation 0.00 in - - ()
Sea Level Pressure  
Sea Level Pressure 29.94 in    
Wind  
Wind Speed 5 mph (South)    
Max Wind Speed 10 mph    
Max Gust Speed -    
Visibility 6 miles    
Events Snow    
Averages and records for this station are not official NWS values.
T = Trace of Precipitation, MM = Missing Value Source: NWS Daily Summary

Daily Weather History Graph

Daily Weather History Graph

Search for Another Location

Airport or City:

Trip Planner

Search our weather history database for the weather conditions in past years. The results will help you decide how hot, cold, wet, or windy it might be!

Date:

Astronomy

Feb. 04, 2013 Rise Set
Actual Time 7:38 AM EST 5:55 PM EST
Civil Twilight 7:09 AM EST 6:23 PM EST
Nautical Twilight 6:37 AM EST 6:55 PM EST
Astronomical Twilight 6:05 AM EST 7:27 PM EST
Moon 2:12 AM EST (2/4) 12:17 PM EST (2/4)
Length of Visible Light 11h 13m
Length of Day
10h 16m
Last Quarter, 37% of the Moon is Illuminated
Feb 4
Last Quarter
Feb 10
New
Feb 17
First Quarter
Feb 25
Full
Mar 4
Last Quarter

Hourly Weather History & Observations

Time (EST) Temp. Windchill Dew Point Humidity Pressure Visibility Wind Dir Wind Speed Gust Speed Precip Events Conditions
12:04 AM 12.2 °F 2.9 °F 10.4 °F 92% 30.07 in 10.0 mi SW 5.8 mph - N/A   Clear
12:24 AM 14.0 °F 5.1 °F 10.4 °F 86% 30.07 in 10.0 mi WSW 5.8 mph - N/A   Clear
12:44 AM 12.2 °F 4.3 °F 10.4 °F 92% 30.07 in 10.0 mi WSW 4.6 mph - N/A   Clear
1:04 AM 12.2 °F 4.3 °F 10.4 °F 92% 30.07 in 10.0 mi SW 4.6 mph - N/A   Clear
1:24 AM 12.2 °F 2.9 °F 10.4 °F 92% 30.07 in 10.0 mi SW 5.8 mph - N/A   Mostly Cloudy
1:44 AM 15.8 °F 8.6 °F 12.2 °F 86% 30.06 in 7.0 mi SW 4.6 mph - N/A Snow Light Snow
2:04 AM 15.8 °F 7.2 °F 12.2 °F 86% 30.07 in 7.0 mi SW 5.8 mph - N/A Snow Light Snow
2:24 AM 14.0 °F 5.1 °F 12.2 °F 93% 30.07 in 7.0 mi SW 5.8 mph - N/A Snow Light Snow
2:44 AM 17.6 °F 10.7 °F 12.2 °F 79% 30.07 in 10.0 mi SW 4.6 mph - N/A   Overcast
3:04 AM 17.6 °F 10.7 °F 12.2 °F 79% 30.07 in 7.0 mi SSW 4.6 mph - N/A Snow Light Snow
3:25 AM 14.0 °F 6.5 °F 10.4 °F 86% 30.06 in 10.0 mi SSW 4.6 mph - N/A   Mostly Cloudy
3:44 AM 14.0 °F 6.5 °F 10.4 °F 86% 30.06 in 10.0 mi SSW 4.6 mph - N/A   Scattered Clouds
4:04 AM 12.2 °F 4.3 °F 10.4 °F 92% 30.05 in 7.0 mi South 4.6 mph - N/A   Overcast
4:24 AM 15.8 °F 8.6 °F 12.2 °F 86% 30.05 in 7.0 mi SSW 4.6 mph - N/A   Overcast
6:04 AM 12.2 °F 4.3 °F 10.4 °F 92% 30.05 in 7.0 mi SW 4.6 mph - N/A Snow Light Snow
6:24 AM 12.2 °F - 10.4 °F 92% 30.04 in 5.0 mi Calm Calm - N/A Snow Light Snow
6:44 AM 10.4 °F 4.0 °F 8.6 °F 92% 30.04 in 5.0 mi South 3.5 mph - N/A Snow Light Snow
7:04 AM 10.4 °F 4.0 °F 8.6 °F 92% 30.03 in 5.0 mi South 3.5 mph - N/A   Overcast
7:24 AM 12.2 °F 2.9 °F 10.4 °F 92% 30.02 in 5.0 mi South 5.8 mph - N/A Snow Light Snow
7:44 AM 12.2 °F 2.9 °F 10.4 °F 92% 30.02 in 5.0 mi South 5.8 mph - N/A Snow Light Snow
8:04 AM 14.0 °F 5.1 °F 12.2 °F 93% 30.01 in 5.0 mi South 5.8 mph - N/A   Overcast
8:24 AM 15.8 °F 7.2 °F 14.0 °F 93% 30.00 in 3.0 mi South 5.8 mph - N/A Snow Light Snow
8:44 AM 17.6 °F 9.3 °F 14.0 °F 86% 30.00 in 2.5 mi South 5.8 mph - N/A Snow Light Snow
9:05 AM 17.6 °F 12.3 °F 15.8 °F 93% 30.00 in 1.5 mi SSE 3.5 mph - N/A Snow Light Snow
9:24 AM 19.4 °F 12.8 °F 17.6 °F 93% 30.00 in 2.0 mi South 4.6 mph - N/A Snow Light Snow
9:44 AM 19.4 °F 12.8 °F 17.6 °F 93% 29.98 in 3.0 mi SSE 4.6 mph - N/A Snow Light Snow
10:05 AM 21.2 °F 13.6 °F 17.6 °F 86% 29.97 in 2.5 mi SE 5.8 mph - N/A Snow Light Snow
10:24 AM 21.2 °F 14.9 °F 17.6 °F 86% 29.97 in 7.0 mi SE 4.6 mph - N/A   Overcast
10:44 AM 21.2 °F 13.6 °F 17.6 °F 86% 29.97 in 10.0 mi SSE 5.8 mph - N/A   Overcast
11:05 AM 23.0 °F 13.1 °F 15.8 °F 74% 29.97 in 7.0 mi SSE 9.2 mph - N/A   Overcast
11:24 AM 23.0 °F 13.9 °F 15.8 °F 74% 29.96 in 7.0 mi SSE 8.1 mph - N/A   Overcast
11:44 AM 23.0 °F 15.8 °F 17.6 °F 80% 29.96 in 4.0 mi SSE 5.8 mph - N/A   Haze
12:05 PM 24.8 °F 16.1 °F 17.6 °F 74% 29.95 in 10.0 mi SSE 8.1 mph - N/A   Overcast
12:24 PM 26.6 °F 17.5 °F 17.6 °F 69% 29.93 in 10.0 mi SSE 9.2 mph - N/A   Overcast
12:44 PM 26.6 °F 17.5 °F 17.6 °F 69% 29.92 in 10.0 mi SSE 9.2 mph - N/A   Overcast
1:05 PM 26.6 °F 17.5 °F 15.8 °F 64% 29.90 in 10.0 mi SSE 9.2 mph - N/A   Overcast
1:24 PM 26.6 °F 16.8 °F 15.8 °F 64% 29.90 in 10.0 mi SSE 10.4 mph - N/A   Overcast
1:44 PM 26.6 °F 16.8 °F 17.6 °F 69% 29.89 in 10.0 mi South 10.4 mph - N/A   Overcast
2:04 PM 26.6 °F 17.5 °F 19.4 °F 74% 29.88 in 3.0 mi South 9.2 mph - N/A Snow Light Snow
2:24 PM 26.6 °F 19.1 °F 21.2 °F 80% 29.86 in 2.5 mi South 6.9 mph - N/A Snow Light Snow
2:44 PM 26.6 °F 18.2 °F 21.2 °F 80% 29.85 in 1.5 mi SSE 8.1 mph - N/A Snow Light Snow
3:04 PM 24.8 °F 16.9 °F 21.2 °F 86% 29.85 in 1.0 mi SSE 6.9 mph - N/A Snow Light Snow
3:24 PM 24.8 °F 16.9 °F 23.0 °F 93% 29.85 in 1.5 mi SSE 6.9 mph - N/A Snow Light Snow
3:44 PM 24.8 °F 17.9 °F 23.0 °F 93% 29.85 in 1.2 mi South 5.8 mph - N/A Snow Light Snow
4:04 PM 24.8 °F 16.9 °F 23.0 °F 93% 29.84 in 1.0 mi SSE 6.9 mph - N/A Snow Light Snow
4:24 PM 26.6 °F 18.2 °F 23.0 °F 86% 29.84 in 1.2 mi SSE 8.1 mph - N/A Snow Light Snow
4:44 PM 26.6 °F 20.0 °F 23.0 °F 86% 29.84 in 1.5 mi SSE 5.8 mph - N/A Snow Light Snow
5:04 PM 26.6 °F 22.6 °F 23.0 °F 86% 29.83 in 4.0 mi South 3.5 mph - N/A Snow Light Snow
5:24 PM 26.6 °F 19.1 °F 23.0 °F 86% 29.83 in 2.0 mi SSE 6.9 mph - N/A Snow Light Snow
5:44 PM 26.6 °F 21.2 °F 23.0 °F 86% 29.83 in 5.0 mi South 4.6 mph - N/A   Overcast
6:04 PM 26.6 °F 21.2 °F 23.0 °F 86% 29.84 in 7.0 mi South 4.6 mph - N/A   Overcast
6:24 PM 26.6 °F 21.2 °F 23.0 °F 86% 29.84 in 10.0 mi South 4.6 mph - N/A   Overcast
6:44 PM 26.6 °F 22.6 °F 24.8 °F 93% 29.84 in 7.0 mi South 3.5 mph - N/A   Overcast
7:04 PM 26.6 °F 22.6 °F 24.8 °F 93% 29.83 in 7.0 mi SSE 3.5 mph - N/A   Overcast
7:24 PM 26.6 °F 21.2 °F 24.8 °F 93% 29.83 in 7.0 mi South 4.6 mph - N/A   Overcast
7:44 PM 26.6 °F 21.2 °F 24.8 °F 93% 29.83 in 7.0 mi South 4.6 mph - N/A   Overcast
8:04 PM 26.6 °F 20.0 °F 24.8 °F 93% 29.83 in 7.0 mi South 5.8 mph - N/A   Overcast
8:24 PM 26.6 °F 21.2 °F 24.8 °F 93% 29.83 in 7.0 mi South 4.6 mph - N/A   Overcast
8:44 PM 26.6 °F - 24.8 °F 93% 29.83 in 5.0 mi Calm Calm - N/A   Overcast
9:04 PM 28.4 °F - 26.6 °F 93% 29.85 in 5.0 mi Calm Calm - N/A   Overcast
9:24 PM 28.4 °F - 26.6 °F 93% 29.85 in 5.0 mi Calm Calm - N/A   Overcast
9:44 PM 28.4 °F - 26.6 °F 93% 29.85 in 5.0 mi Calm Calm - N/A   Overcast
10:04 PM 28.4 °F - 26.6 °F 93% 29.85 in 5.0 mi Calm Calm - N/A   Overcast
10:24 PM 28.4 °F - 26.6 °F 93% 29.85 in 5.0 mi Calm Calm - N/A   Overcast
10:44 PM 28.4 °F - 26.6 °F 93% 29.85 in 5.0 mi Calm Calm - N/A   Overcast
11:04 PM 28.4 °F - 26.6 °F 93% 29.85 in 5.0 mi Calm Calm - N/A   Overcast
11:24 PM 28.4 °F - 26.6 °F 93% 29.85 in 5.0 mi Calm Calm - N/A   Overcast
11:44 PM 28.4 °F - 26.6 °F 93% 29.85 in 5.0 mi Calm Calm - N/A   Overcast